TimeEST,TemperatureF,Dew PointF,Humidity,Sea Level PressureIn,VisibilityMPH,Wind Direction,Wind SpeedMPH,Gust SpeedMPH,PrecipitationIn,Events,Conditions,WindDirDegrees,DateUTC
12:15 AM,53.6,46.4,77,29.79,10.0,SW,11.5,20.7,0.00,,Clear,220,2014-02-15 05:15:00
12:35 AM,53.6,46.4,77,29.79,10.0,SSW,9.2,17.3,0.00,,Clear,210,2014-02-15 05:35:00
12:55 AM,53.6,46.4,77,29.77,10.0,SSW,13.8,20.7,0.00,,Clear,210,2014-02-15 05:55:00
1:15 AM,51.8,46.4,82,29.76,10.0,SSW,12.7,18.4,0.00,,Clear,210,2014-02-15 06:15:00
1:35 AM,51.8,46.4,82,29.76,10.0,SW,12.7,21.9,0.00,,Clear,220,2014-02-15 06:35:00
1:55 AM,51.8,46.4,82,29.76,10.0,SSW,13.8,21.9,0.00,,Clear,210,2014-02-15 06:55:00
2:15 AM,51.8,48.2,88,29.74,10.0,SSW,13.8,19.6,0.00,,Clear,210,2014-02-15 07:15:00
2:35 AM,51.8,48.2,88,29.73,10.0,SSW,13.8,21.9,0.00,,Clear,210,2014-02-15 07:35:00
2:55 AM,51.8,48.2,88,29.73,10.0,SSW,13.8,23.0,0.00,,Partly Cloudy,210,2014-02-15 07:55:00
3:15 AM,51.8,48.2,88,29.72,10.0,SSW,16.1,21.9,0.00,,Clear,200,2014-02-15 08:15:00
3:35 AM,51.8,48.2,88,29.70,10.0,SSW,15.0,21.9,0.00,,Scattered Clouds,210,2014-02-15 08:35:00
3:55 AM,51.8,50.0,94,29.69,5.0,SSW,10.4,19.6,0.00,,Mostly Cloudy,210,2014-02-15 08:55:00
4:15 AM,51.8,51.8,100,29.67,5.0,SSW,15.0,20.7,0.00,,Overcast,200,2014-02-15 09:15:00
4:35 AM,51.8,51.8,100,29.66,5.0,SSW,15.0,21.9,0.00,Rain,Light Rain,210,2014-02-15 09:35:00
4:55 AM,51.8,51.8,100,29.67,3.0,SW,19.6,27.6,0.00,Rain,Light Rain,220,2014-02-15 09:55:00
5:15 AM,51.8,51.8,100,29.67,6.0,SW,15.0,29.9,0.00,,Light Drizzle,230,2014-02-15 10:15:00
5:35 AM,51.8,51.8,100,29.66,7.0,SW,12.7,18.4,0.00,,Light Drizzle,230,2014-02-15 10:35:00
5:55 AM,50.0,50.0,100,29.66,8.0,SW,13.8,19.6,0.00,,Mostly Cloudy,220,2014-02-15 10:55:00
6:15 AM,50.0,50.0,100,29.67,7.0,SW,12.7,-,0.00,,Scattered Clouds,220,2014-02-15 11:15:00
6:35 AM,50.0,50.0,100,29.67,8.0,SW,12.7,-,0.00,,Mostly Cloudy,220,2014-02-15 11:35:00
6:55 AM,51.8,51.8,100,29.69,9.0,WSW,10.4,20.7,0.00,,Overcast,250,2014-02-15 11:55:00
7:15 AM,51.8,50.0,94,29.71,10.0,West,11.5,21.9,0.00,,Mostly Cloudy,270,2014-02-15 12:15:00
7:35 AM,51.8,50.0,94,29.72,10.0,West,13.8,20.7,0.00,,Overcast,270,2014-02-15 12:35:00
7:55 AM,51.8,48.2,88,29.73,10.0,West,16.1,27.6,0.00,,Overcast,280,2014-02-15 12:55:00
8:15 AM,51.8,46.4,82,29.74,10.0,West,15.0,20.7,0.00,,Mostly Cloudy,270,2014-02-15 13:15:00
8:35 AM,51.8,46.4,82,29.75,10.0,West,17.3,27.6,0.00,,Mostly Cloudy,270,2014-02-15 13:35:00
8:55 AM,51.8,44.6,76,29.77,10.0,West,18.4,31.1,0.00,,Overcast,270,2014-02-15 13:55:00
9:15 AM,51.8,44.6,76,29.77,10.0,West,16.1,28.8,0.00,,Mostly Cloudy,260,2014-02-15 14:15:00
9:35 AM,53.6,44.6,72,29.78,10.0,West,19.6,34.5,0.00,,Partly Cloudy,280,2014-02-15 14:35:00
9:55 AM,53.6,44.6,72,29.79,10.0,WNW,20.7,34.5,0.00,,Scattered Clouds,290,2014-02-15 14:55:00
10:15 AM,53.6,44.6,72,29.80,10.0,West,20.7,29.9,0.00,,Mostly Cloudy,280,2014-02-15 15:15:00
10:35 AM,53.6,44.6,72,29.81,10.0,West,19.6,27.6,0.00,,Mostly Cloudy,280,2014-02-15 15:35:00
10:55 AM,53.6,42.8,67,29.82,10.0,WNW,19.6,29.9,0.00,,Scattered Clouds,290,2014-02-15 15:55:00
11:15 AM,53.6,41.0,62,29.83,10.0,West,23.0,29.9,0.00,,Scattered Clouds,280,2014-02-15 16:15:00
11:35 AM,55.4,39.2,54,29.83,10.0,WNW,20.7,28.8,0.00,,Scattered Clouds,290,2014-02-15 16:35:00
11:55 AM,55.4,39.2,54,29.84,10.0,WNW,18.4,27.6,0.00,,Partly Cloudy,290,2014-02-15 16:55:00
12:15 PM,57.2,39.2,51,29.85,10.0,West,17.3,27.6,0.00,,Clear,270,2014-02-15 17:15:00
12:35 PM,57.2,39.2,51,29.85,10.0,West,18.4,25.3,0.00,,Clear,280,2014-02-15 17:35:00
12:55 PM,57.2,37.4,48,29.86,10.0,West,21.9,31.1,0.00,,Clear,270,2014-02-15 17:55:00
1:15 PM,57.2,39.2,51,29.86,10.0,WNW,21.9,29.9,0.00,,Clear,300,2014-02-15 18:15:00
1:35 PM,57.2,37.4,48,29.85,10.0,West,20.7,32.2,0.00,,Clear,270,2014-02-15 18:35:00
1:55 PM,60.8,37.4,42,29.85,10.0,NW,18.4,28.8,0.00,,Clear,310,2014-02-15 18:55:00
2:15 PM,60.8,35.6,39,29.85,10.0,WNW,21.9,28.8,0.00,,Clear,300,2014-02-15 19:15:00
2:35 PM,59.0,35.6,42,29.87,10.0,WNW,21.9,29.9,0.00,,Clear,300,2014-02-15 19:35:00
2:55 PM,59.0,35.6,42,29.88,10.0,West,17.3,28.8,0.00,,Clear,280,2014-02-15 19:55:00
3:15 PM,60.8,35.6,39,29.89,10.0,WNW,18.4,27.6,0.00,,Clear,290,2014-02-15 20:15:00
3:35 PM,60.8,35.6,39,29.90,10.0,NW,19.6,27.6,0.00,,Clear,310,2014-02-15 20:35:00
3:55 PM,59.0,33.8,39,29.92,10.0,NW,19.6,25.3,0.00,,Clear,310,2014-02-15 20:55:00
4:15 PM,60.8,33.8,36,29.93,10.0,NW,16.1,25.3,0.00,,Clear,310,2014-02-15 21:15:00
4:35 PM,57.2,33.8,41,29.95,10.0,WNW,19.6,25.3,0.00,,Clear,290,2014-02-15 21:35:00
4:55 PM,57.2,33.8,41,29.97,10.0,WNW,13.8,24.2,0.00,,Clear,290,2014-02-15 21:55:00
5:15 PM,57.2,33.8,41,29.97,10.0,West,17.3,23.0,0.00,,Clear,280,2014-02-15 22:15:00
5:35 PM,55.4,33.8,44,29.98,10.0,West,16.1,24.2,0.00,,Clear,280,2014-02-15 22:35:00
5:55 PM,55.4,33.8,44,30.01,10.0,WNW,16.1,-,0.00,,Clear,290,2014-02-15 22:55:00
6:15 PM,53.6,32.0,44,30.01,10.0,WNW,8.1,-,0.00,,Clear,290,2014-02-15 23:15:00
6:35 PM,51.8,32.0,47,30.02,10.0,WNW,8.1,-,0.00,,Clear,300,2014-02-15 23:35:00
6:55 PM,51.8,32.0,47,30.03,10.0,West,5.8,-,0.00,,Clear,260,2014-02-15 23:55:00
7:15 PM,51.8,32.0,47,30.04,10.0,West,3.5,-,0.00,,Clear,260,2014-02-16 00:15:00
7:35 PM,48.2,32.0,54,30.05,10.0,Calm,Calm,-,0.00,,Clear,0,2014-02-16 00:35:00
7:55 PM,46.4,33.8,62,30.06,10.0,Calm,Calm,-,0.00,,Clear,0,2014-02-16 00:55:00
8:15 PM,44.6,33.8,66,30.07,10.0,Calm,Calm,-,0.00,,Clear,0,2014-02-16 01:15:00
8:35 PM,44.6,33.8,66,30.07,10.0,Calm,Calm,-,0.00,,Clear,0,2014-02-16 01:35:00
8:55 PM,42.8,33.8,70,30.08,10.0,Calm,Calm,-,0.00,,Clear,0,2014-02-16 01:55:00
9:15 PM,42.8,32.0,66,30.10,10.0,Calm,Calm,-,0.00,,Clear,0,2014-02-16 02:15:00
9:35 PM,42.8,32.0,66,30.11,10.0,West,6.9,-,0.00,,Clear,270,2014-02-16 02:35:00
9:55 PM,44.6,32.0,61,30.10,10.0,Calm,Calm,-,0.00,,Clear,0,2014-02-16 02:55:00
10:15 PM,42.8,32.0,66,30.09,10.0,Calm,Calm,-,0.00,,Clear,0,2014-02-16 03:15:00
10:35 PM,41.0,32.0,70,30.09,10.0,Calm,Calm,-,0.00,,Clear,0,2014-02-16 03:35:00
10:55 PM,39.2,32.0,75,30.10,10.0,West,6.9,-,0.00,,Clear,280,2014-02-16 03:55:00
11:15 PM,39.2,32.0,75,30.10,10.0,NW,8.1,-,0.00,,Clear,310,2014-02-16 04:15:00
11:35 PM,42.8,32.0,66,30.09,10.0,WNW,5.8,-,0.00,,Clear,300,2014-02-16 04:35:00
11:55 PM,42.8,32.0,66,30.09,10.0,WNW,5.8,-,0.00,,Clear,290,2014-02-16 04:55:00